Williamtown, Australia

3:53 PM AEDT on March 25, 2017 (GMT +1100)
Williamtown Military

Weather History for YWLM - June, 2013

Change the Weather History Date:

Wednesday, June 26, 2013

  Actual Average Record
Temperature  
Mean Temperature 56 °F -  
Max Temperature 66 °F - - ()
Min Temperature 45 °F - - ()
Degree Days  
Heating Degree Days 10    
Growing Degree Days 6 (Base 50)    
Moisture  
Dew Point 53 °F    
Average Humidity 81    
Maximum Humidity 100    
Minimum Humidity 62    
Precipitation  
Precipitation 0.16 in - - ()
Sea Level Pressure  
Sea Level Pressure 30.05 in    
Wind  
Wind Speed 14 mph ()    
Max Wind Speed 26 mph    
Max Gust Speed 41 mph    
Visibility 6.2 miles    
Events Rain    
T = Trace of Precipitation, MM = Missing Value Source: Averaged Metar Reports

Daily Weather History Graph

Daily Weather History Graph

Search for Another Location

Airport or City:

Trip Planner

Search our weather history database for the weather conditions in past years. The results will help you decide how hot, cold, wet, or windy it might be!

Date:

Astronomy

Jun. 26, 2013 Rise Set
Actual Time 6:55 AM AEST 4:55 PM AEST
Civil Twilight 6:28 AM AEST 5:22 PM AEST
Nautical Twilight 5:57 AM AEST 5:53 PM AEST
Astronomical Twilight 5:27 AM AEST 6:23 PM AEST
Moon 8:15 PM AEST (6/26) 8:51 AM AEST (6/26)
Length of Visible Light 10h 54m
Length of Day
9h 59m
Waning Gibbous, 90% of the Moon is Illuminated
Jun 26
Waning Gibbous
Jun 30
Last Quarter
Jul 8
New
Jul 16
First Quarter
Jul 23
Full

Hourly Weather History & Observations

Time (AEST) Temp. Windchill Dew Point Humidity Pressure Visibility Wind Dir Wind Speed Gust Speed Precip Events Conditions
12:00 AM 46 °F - 44 °F 89% 30.01 in - WNW 10.4 mph - -  
12:00 AM 46.4 °F 41.5 °F 44.6 °F 93% 30.01 in 6.2 mi WNW 10.4 mph - N/A   Unknown
12:30 AM 46.4 °F 41.5 °F 44.6 °F 93% 30.01 in 6.2 mi WNW 10.4 mph - N/A   Unknown
1:00 AM 46.4 °F 41.5 °F 44.6 °F 93% 30.01 in 6.2 mi WNW 10.4 mph - N/A   Scattered Clouds
1:30 AM 46.4 °F 41.5 °F 44.6 °F 93% 30.01 in 6.2 mi West 10.4 mph - N/A   Scattered Clouds
2:00 AM 48.2 °F - 44.6 °F 87% 30.01 in 6.2 mi WNW 13.8 mph - N/A   Mostly Cloudy
2:30 AM 48.2 °F - 46.4 °F 93% 30.01 in 6.2 mi WNW 13.8 mph - N/A   Overcast
3:00 AM 49 °F - 46 °F 87% 30.00 in - WNW 13.8 mph - -  
3:00 AM 48.2 °F - 46.4 °F 93% 29.98 in 6.2 mi WNW 13.8 mph - N/A   Scattered Clouds
3:30 AM 48.2 °F - 46.4 °F 93% 29.98 in 6.2 mi WNW 16.1 mph - N/A   Unknown
4:00 AM 48 °F - 47 °F 93% 29.99 in - WNW 12.7 mph - -  
4:00 AM 48.2 °F - 46.4 °F 93% 29.98 in 6.2 mi WNW 12.7 mph - N/A   Scattered Clouds
4:30 AM 48.2 °F - 46.4 °F 93% 29.98 in 6.2 mi WNW 12.7 mph - N/A Rain Rain
5:00 AM 50.0 °F - 48.2 °F 94% 29.98 in 6.2 mi WNW 12.7 mph - N/A   Overcast
5:30 AM 50.0 °F - 48.2 °F 94% 29.98 in 6.2 mi WNW 12.7 mph - N/A Rain Light Rain Showers
6:00 AM 50 °F - 49 °F 95% 30.01 in 9 mi WNW 8.1 mph - -   Mostly Cloudy
6:00 AM 50.0 °F - 50.0 °F 100% 30.01 in 6.2 mi WNW 8.1 mph - N/A   Mostly Cloudy
6:30 AM 51.8 °F - 50.0 °F 94% 30.01 in 6.2 mi WNW 9.2 mph - N/A Rain Light Rain Showers
7:00 AM 52 °F - 51 °F 95% 30.02 in - WNW 5.8 mph - -  
7:05 AM 59.0 °F - 57.2 °F 94% 30.01 in 6.2 mi SSE 24.2 mph - N/A   Mostly Cloudy
7:30 AM 60.8 °F - 57.2 °F 88% 30.01 in 6.2 mi SSE 16.1 mph - N/A   Mostly Cloudy
7:42 AM 60.8 °F - 57.2 °F 88% 30.01 in 3.7 mi SSE 13.8 mph - N/A Rain Light Rain Showers
7:48 AM 60.8 °F - 59.0 °F 94% 30.01 in 3.1 mi SE 19.6 mph 32.2 mph N/A Rain Light Rain Showers
8:12 AM 60.8 °F - 57.2 °F 88% 30.04 in 6.2 mi South 18.4 mph - N/A   Mostly Cloudy
8:26 AM 62.6 °F - 57.2 °F 82% 30.04 in 6.2 mi SSE 17.3 mph 33.4 mph N/A Rain Light Rain Showers
8:30 AM 60.8 °F - 57.2 °F 88% 30.04 in 6.2 mi SSE 20.7 mph 33.4 mph N/A Rain Light Rain Showers
9:00 AM 62 °F - 57 °F 77% 30.05 in 9 mi South 19.6 mph - - Rain Light Rain Showers
9:00 AM 62.6 °F - 57.2 °F 82% 30.04 in 6.2 mi South 19.6 mph - N/A Rain Light Rain Showers
9:30 AM 62.6 °F - 57.2 °F 82% 30.04 in 5.6 mi SSE 21.9 mph 33.4 mph N/A Rain Light Rain Showers
10:00 AM 64 °F - 56 °F 67% 30.06 in - SSE 25.3 mph - -  
10:00 AM 64.4 °F - 55.4 °F 73% 30.04 in 6.2 mi SSE 25.3 mph - N/A   Mostly Cloudy
10:36 AM 64.4 °F - 55.4 °F 73% 30.06 in 6.2 mi SSE 26.5 mph 38.0 mph N/A   Mostly Cloudy
11:00 AM 64.4 °F - 55.4 °F 73% 30.06 in 6.2 mi SSE 25.3 mph - N/A   Mostly Cloudy
11:30 AM 64.4 °F - 55.4 °F 73% 30.04 in 6.2 mi SSE 25.3 mph - N/A   Mostly Cloudy
12:00 PM 64 °F - 55 °F 64% 30.06 in 12 mi SSE 24.2 mph - -   Mostly Cloudy
12:00 PM 64.4 °F - 55.4 °F 73% 30.04 in 6.2 mi SSE 23.0 mph 34.5 mph N/A   Mostly Cloudy
12:30 PM 64.4 °F - 55.4 °F 73% 30.04 in 6.2 mi SSE 24.2 mph - N/A   Scattered Clouds
1:00 PM 65 °F - 55 °F 62% 30.05 in - SSE 25.3 mph - -  
1:00 PM 66.2 °F - 55.4 °F 68% 30.04 in 6.2 mi SSE 25.3 mph - N/A   Mostly Cloudy
1:27 PM 64.4 °F - 57.2 °F 77% 30.04 in 6.2 mi SSE 23.0 mph 38.0 mph N/A Rain Light Rain Showers
1:30 PM 62.6 °F - 57.2 °F 82% 30.04 in 6.2 mi SE 26.5 mph 41.4 mph N/A Rain Light Rain Showers
1:49 PM 62.6 °F - 55.4 °F 77% 30.04 in 6.2 mi SSE 19.6 mph - N/A   Mostly Cloudy
2:00 PM 64.4 °F - 55.4 °F 73% 30.04 in 6.2 mi SE 20.7 mph - N/A   Mostly Cloudy
2:30 PM 64.4 °F - 57.2 °F 77% 30.04 in 6.2 mi SSE 19.6 mph - N/A   Mostly Cloudy
3:00 PM 63 °F - 56 °F 71% 30.07 in 6 mi SSE 18.4 mph - - Rain Light Rain Showers
3:00 PM 62.6 °F - 55.4 °F 77% 30.06 in 6.2 mi SSE 18.4 mph - N/A Rain Light Rain Showers
3:30 PM 62.6 °F - 55.4 °F 77% 30.06 in 6.2 mi SSE 18.4 mph - N/A   Mostly Cloudy
4:00 PM 63 °F - 56 °F 70% 30.08 in - SSE 18.4 mph - -  
4:00 PM 62.6 °F - 55.4 °F 77% 30.06 in 6.2 mi SSE 18.4 mph - N/A   Scattered Clouds
4:30 PM 62.6 °F - 53.6 °F 72% 30.06 in 6.2 mi SSE 17.3 mph - N/A   Scattered Clouds
5:00 PM 62.6 °F - 53.6 °F 72% 30.06 in 6.2 mi SSE 17.3 mph - N/A   Scattered Clouds
5:30 PM 62.6 °F - 53.6 °F 72% 30.09 in 6.2 mi SSE 17.3 mph - N/A   Scattered Clouds
6:00 PM 63 °F - 54 °F 65% 30.11 in - SSE 16.1 mph - -   Overcast
6:00 PM 62.6 °F - 53.6 °F 72% 30.09 in 6.2 mi SSE 16.1 mph - N/A   Scattered Clouds
6:30 PM 62.6 °F - 53.6 °F 72% 30.09 in 6.2 mi SSE 17.3 mph - N/A   Partly Cloudy
7:00 PM 62 °F - 53 °F 63% 30.12 in - SSE 17.3 mph - -  
7:00 PM 62.6 °F - 51.8 °F 68% 30.09 in 6.2 mi SSE 17.3 mph - N/A   Partly Cloudy
7:30 PM 60.8 °F - 53.6 °F 77% 30.09 in 6.2 mi SSE 15.0 mph - N/A   Partly Cloudy
8:00 PM 60.8 °F - 51.8 °F 72% 30.12 in 6.2 mi SSE 13.8 mph - N/A   Partly Cloudy
8:30 PM 60.8 °F - 53.6 °F 77% 30.09 in 6.2 mi SSE 15.0 mph - N/A   Unknown
9:00 PM 62 °F - 54 °F 66% 30.12 in - SSE 15.0 mph - -  
9:00 PM 62.6 °F - 53.6 °F 72% 30.09 in 6.2 mi SSE 15.0 mph - N/A   Mostly Cloudy
9:30 PM 62.6 °F - 53.6 °F 72% 30.12 in 6.2 mi SSE 16.1 mph - N/A   Mostly Cloudy
10:00 PM 62 °F - 54 °F 67% 30.13 in - SSE 12.7 mph - -  
10:00 PM 62.6 °F - 53.6 °F 72% 30.12 in 6.2 mi SSE 12.7 mph - N/A   Mostly Cloudy
10:30 PM 60.8 °F - 53.6 °F 77% 30.12 in 6.2 mi SSE 15.0 mph - N/A   Scattered Clouds
10:55 PM 60.8 °F - 57.2 °F 88% 30.12 in 3.7 mi SSE 15.0 mph - N/A Rain Rain
11:00 PM 60.8 °F - 57.2 °F 88% 30.12 in - ESE 13.8 mph - N/A Rain Heavy Rain
11:23 PM 60.8 °F - 57.2 °F 88% 30.12 in 6.2 mi SSE 12.7 mph - N/A Rain Light Rain Showers
11:30 PM 60.8 °F - 55.4 °F 82% 30.12 in 6.2 mi SSE 16.1 mph - N/A   Overcast